Location: Ceske Budejovice
(48.9830°N, 14.4670°E)
Time: 08:59:14
(UTC+02:00)

ISS - Pass Details

Date: 25 April 2024
Orbit: 409 x 414 km, 51.6° (Epoch: 21 May)

Event Time Altitude Azimuth Distance (km) Brightness Sun altitude
Exits shadow 04:39:35 16° 212° (SSW) 1,150 -2.1 -11.2°
Maximum altitude 04:41:50 39° 148° (SSE) 630 -2.9 -10.9°
Drops below altitude 10° 04:44:57 10° 78° (ENE) 1,477 0.2 -10.4°
Sets 04:47:07 0° 71° (ENE) 2,341 1.8 -10.2°
